Precipitable_Water
0.85 0.81 0.78 0.78 0.81 0.83 0.81 0.65 0.43 0.70 0.77 0.45 0.45 0.37 0.41 0.46 0.43 0.48 0.44 0.45 0.39 0.35 0.36 0.33 0.32 0.30 0.35 0.42 0.42 0.35 0.38 0.33 0.22 0.24 0.31 0.32 0.31 0.28 0.28 0.20 0.18 0.22 0.21 0.17
0.72 0.69 0.68 0.69 0.71 0.76 0.67 0.52 0.50 0.66 0.65 0.31 0.35 0.40 0.40 0.43 0.40 0.41 0.40 0.39 0.41 0.41 0.36 0.30 0.34 0.35 0.40 0.44 0.41 0.37 0.38 0.29 0.21 0.21 0.26 0.31 0.27 0.28 0.27 0.26 0.25 0.19 0.17 0.16
0.59 0.56 0.55 0.54 0.58 0.63 0.62 0.49 0.35 0.44 0.46 0.44 0.37 0.34 0.36 0.36 0.44 0.42 0.44 0.42 0.43 0.37 0.33 0.37 0.32 0.33 0.39 0.42 0.43 0.45 0.43 0.31 0.24 0.18 0.21 0.26 0.23 0.23 0.24 0.24 0.19 0.18 0.17 0.17
0.49 0.47 0.44 0.44 0.45 0.46 0.46 0.44 0.36 0.43 0.33 0.35 0.37 0.38 0.37 0.33 0.34 0.44 0.45 0.39 0.38 0.35 0.30 0.32 0.31 0.35 0.38 0.41 0.43 0.43 0.39 0.27 0.28 0.25 0.25 0.24 0.21 0.21 0.21 0.20 0.20 0.17 0.17 0.17
0.40 0.37 0.38 0.32 0.30 0.28 0.22 0.18 0.24 0.34 0.33 0.34 0.32 0.29 0.26 0.26 0.29 0.32 0.31 0.29 0.31 0.34 0.32 0.30 0.28 0.33 0.32 0.30 0.33 0.34 0.36 0.26 0.26 0.20 0.21 0.20 0.19 0.18 0.18 0.18 0.17 0.17 0.16 0.16
0.33 0.30 0.29 0.27 0.27 0.26 0.17 0.24 0.27 0.22 0.18 0.19 0.20 0.19 0.21 0.23 0.25 0.29 0.30 0.28 0.29 0.27 0.27 0.29 0.31 0.32 0.30 0.29 0.27 0.27 0.27 0.25 0.21 0.15 0.18 0.18 0.15 0.15 0.15 0.15 0.16 0.16 0.14 0.15
0.28 0.27 0.26 0.25 0.26 0.28 0.24 0.21 0.20 0.14 0.10 0.12 0.12 0.14 0.16 0.18 0.21 0.21 0.26 0.28 0.26 0.27 0.32 0.31 0.30 0.29 0.27 0.26 0.24 0.25 0.23 0.22 0.20 0.14 0.15 0.11 0.13 0.16 0.15 0.14 0.14 0.15 0.14 0.15
0.26 0.26 0.26 0.27 0.28 0.29 0.25 0.25 0.22 0.17 0.10 0.11 0.12 0.13 0.13 0.15 0.16 0.18 0.20 0.23 0.27 0.29 0.27 0.22 0.19 0.18 0.19 0.19 0.20 0.19 0.21 0.20 0.15 0.13 0.11 0.11 0.12 0.13 0.13 0.12 0.12 0.14 0.13 0.14
0.25 0.26 0.26 0.28 0.30 0.31 0.28 0.28 0.30 0.23 0.15 0.12 0.15 0.14 0.14 0.13 0.14 0.16 0.19 0.22 0.24 0.26 0.22 0.18 0.13 0.12 0.13 0.13 0.15 0.16 0.16 0.18 0.15 0.12 0.10 0.08 0.11 0.13 0.15 0.14 0.10 0.13 0.13 0.11
0.23 0.20 0.21 0.22 0.24 0.23 0.25 0.23 0.23 0.16 0.12 0.11 0.11 0.10 0.10 0.12 0.13 0.13 0.17 0.19 0.19 0.22 0.17 0.13 0.11 0.10 0.12 0.10 0.10 0.10 0.11 0.11 0.10 0.10 0.09 0.09 0.12 0.12 0.12 0.07 0.08 0.09 0.08 0.07
0.21 0.19 0.15 0.15 0.15 0.14 0.13 0.10 0.11 0.08 0.06 0.07 0.08 0.08 0.07 0.08 0.09 0.08 0.11 0.13 0.14 0.15 0.13 0.12 0.11 0.10 0.11 0.08 0.09 0.07 0.07 0.06 0.06 0.06 0.07 0.06 0.09 0.08 0.05 0.06 0.07 0.07 0.06 0.07
0.21 0.19 0.17 0.14 0.11 0.10 0.08 0.06 0.08 0.08 0.05 0.06 0.08 0.09 0.09 0.09 0.11 0.11 0.11 0.11 0.11 0.12 0.11 0.11 0.09 0.07 0.06 0.05 0.03 0.05 0.03 0.04 0.03 0.03 0.03 0.05 0.06 0.05 0.06 0.06 0.06 0.06 0.06 0.06
0.15 0.16 0.14 0.13 0.13 0.10 0.09 0.08 0.10 0.07 0.05 0.05 0.06 0.05 0.07 0.09 0.09 0.12 0.07 0.08 0.10 0.08 0.08 0.04 0.03 0.02 0.03 0.02 0.02 0.03 0.04 0.05 0.03 0.03 0.04 0.05 0.05 0.06 0.06 0.07 0.06 0.07 0.07 0.07
0.20 0.18 0.14 0.13 0.12 0.10 0.09 0.08 0.09 0.07 0.06 0.04 0.05 0.08 0.07 0.09 0.09 0.08 0.08 0.07 0.07 0.06 0.05 0.04 0.04 0.03 0.04 0.03 0.04 0.04 0.05 0.04 0.04 0.04 0.04 0.05 0.06 0.06 0.07 0.07 0.07 0.07 0.08 0.08
0.18 0.18 0.17 0.15 0.13 0.11 0.10 0.10 0.11 0.09 0.06 0.05 0.06 0.08 0.09 0.09 0.08 0.07 0.07 0.06 0.05 0.05 0.04 0.05 0.04 0.05 0.05 0.05 0.04 0.04 0.06 0.05 0.04 0.03 0.05 0.05 0.05 0.07 0.07 0.07 0.07 0.07 0.07 0.07
0.17 0.16 0.15 0.16 0.16 0.14 0.09 0.07 0.10 0.12 0.09 0.06 0.05 0.08 0.08 0.09 0.09 0.09 0.09 0.09 0.07 0.06 0.06 0.06 0.06 0.07 0.05 0.04 0.03 0.05 0.07 0.07 0.07 0.05 0.07 0.07 0.07 0.07 0.08 0.07 0.08 0.08 0.08 0.08
0.18 0.18 0.17 0.15 0.14 0.13 0.10 0.09 0.12 0.15 0.12 0.07 0.06 0.06 0.09 0.09 0.09 0.10 0.10 0.10 0.10 0.10 0.09 0.09 0.09 0.08 0.08 0.08 0.08 0.09 0.08 0.08 0.08 0.08 0.08 0.07 0.07 0.07 0.08 0.08 0.08 0.09 0.08 0.08
0.17 0.17 0.16 0.16 0.15 0.15 0.13 0.16 0.15 0.13 0.10 0.09 0.07 0.07 0.08 0.10 0.08 0.08 0.10 0.09 0.10 0.10 0.10 0.10 0.10 0.10 0.11 0.09 0.12 0.13 0.13 0.11 0.09 0.09 0.09 0.09 0.09 0.09 0.08 0.09 0.09 0.08 0.08 0.08
0.16 0.16 0.17 0.13 0.12 0.12 0.15 0.19 0.16 0.15 0.12 0.10 0.10 0.09 0.07 0.11 0.09 0.10 0.10 0.11 0.08 0.11 0.09 0.10 0.11 0.11 0.10 0.13 0.14 0.14 0.14 0.13 0.13 0.12 0.11 0.10 0.10 0.09 0.09 0.09 0.09 0.09 0.08 0.09
0.16 0.13 0.11 0.10 0.13 0.20 0.17 0.14 0.12 0.12 0.14 0.14 0.11 0.12 0.10 0.11 0.10 0.09 0.09 0.10 0.08 0.07 0.09 0.11 0.09 0.10 0.14 0.15 0.16 0.16 0.16 0.16 0.15 0.13 0.12 0.11 0.11 0.10 0.10 0.10 0.10 0.10 0.09 0.09
0.11 0.11 0.11 0.15 0.19 0.15 0.14 0.12 0.12 0.13 0.12 0.14 0.13 0.13 0.11 0.12 0.09 0.08 0.09 0.08 0.08 0.07 0.08 0.09 0.09 0.10 0.12 0.16 0.17 0.18 0.18 0.18 0.17 0.16 0.15 0.14 0.13 0.12 0.11 0.11 0.11 0.11 0.10 0.10
0.13 0.14 0.16 0.16 0.14 0.12 0.11 0.11 0.13 0.12 0.11 0.14 0.13 0.13 0.12 0.12 0.12 0.09 0.09 0.08 0.08 0.07 0.10 0.08 0.08 0.11 0.14 0.15 0.16 0.18 0.18 0.18 0.18 0.17 0.16 0.16 0.15 0.14 0.13 0.13 0.12 0.11 0.11 0.11
0.15 0.14 0.13 0.13 0.12 0.10 0.09 0.09 0.10 0.11 0.13 0.14 0.14 0.12 0.13 0.13 0.13 0.10 0.10 0.08 0.08 0.10 0.08 0.08 0.10 0.13 0.14 0.15 0.16 0.17 0.18 0.19 0.18 0.18 0.18 0.17 0.16 0.16 0.15 0.14 0.13 0.13 0.12 0.11
0.11 0.11 0.10 0.10 0.10 0.11 0.12 0.12 0.13 0.14 0.14 0.14 0.14 0.13 0.12 0.13 0.12 0.12 0.09 0.10 0.10 0.08 0.08 0.09 0.12 0.15 0.15 0.15 0.16 0.17 0.16 0.17 0.18 0.18 0.18 0.17 0.17 0.17 0.17 0.16 0.15 0.14 0.13 0.12
0.12 0.11 0.09 0.11 0.13 0.14 0.15 0.16 0.15 0.16 0.16 0.15 0.13 0.13 0.13 0.12 0.12 0.12 0.12 0.10 0.08 0.09 0.10 0.12 0.15 0.16 0.14 0.14 0.16 0.16 0.16 0.16 0.16 0.18 0.18 0.18 0.18 0.17 0.17 0.17 0.16 0.16 0.14 0.13
0.12 0.12 0.12 0.13 0.13 0.13 0.14 0.15 0.15 0.17 0.16 0.15 0.14 0.12 0.11 0.11 0.12 0.11 0.10 0.10 0.09 0.11 0.14 0.17 0.17 0.17 0.15 0.14 0.15 0.16 0.17 0.16 0.15 0.16 0.17 0.18 0.18 0.17 0.17 0.18 0.17 0.17 0.16 0.15
0.12 0.12 0.15 0.14 0.14 0.15 0.15 0.16 0.16 0.18 0.16 0.13 0.13 0.11 0.11 0.13 0.11 0.11 0.13 0.12 0.13 0.16 0.17 0.18 0.18 0.17 0.17 0.17 0.16 0.15 0.15 0.16 0.15 0.14 0.16 0.17 0.19 0.19 0.17 0.16 0.17 0.17 0.17 0.16
Wind_Speed
43 44 45 46 46 47 44 41 40 37 33 34 35 36 36 39 36 35 36 33 33 31 29 29 29 29 27 23 21 22 24 22 23 23 21 18 17 17 17 16 16 17 17 16
43 45 46 46 45 43 42 40 41 40 39 38 39 40 39 39 39 37 35 33 33 31 31 29 29 28 28 23 22 20 20 19 19 20 18 17 15 15 16 18 19 20 19 17
45 46 47 45 44 43 42 41 40 39 40 41 41 42 44 42 41 43 36 38 35 32 33 31 28 28 25 25 26 25 21 22 22 23 18 16 15 18 19 19 19 18 18 18
47 47 47 46 45 45 43 41 42 41 39 43 44 44 42 46 40 37 35 31 35 36 32 30 33 30 26 24 24 25 22 22 19 20 18 16 14 14 15 16 20 19 18 17
47 47 46 46 47 46 42 42 42 42 43 43 40 33 32 30 29 26 28 28 31 26 29 27 24 22 20 19 22 22 23 22 19 18 13 11 11 15 15 15 15 13 14 16
46 45 44 44 43 41 38 37 37 36 34 34 32 30 32 31 31 26 24 26 21 18 20 18 16 11 13 17 18 20 20 20 19 17 18 19 16 17 16 16 17 18 18 19
42 41 40 39 36 34 30 29 28 26 25 25 25 27 29 32 31 30 26 25 21 18 13 12 12 10 12 13 13 16 18 17 15 15 19 17 19 18 16 15 17 17 17 19
37 36 35 33 31 28 26 25 23 20 19 23 22 25 23 24 23 22 23 22 23 24 23 21 19 18 16 14 14 15 16 18 16 17 17 17 18 19 19 19 18 18 19 20
34 33 32 29 28 25 24 23 21 18 16 22 20 19 19 17 17 15 15 16 18 17 18 17 17 17 19 18 19 16 14 11 12 13 12 14 16 16 18 16 17 17 19 23
31 31 30 30 27 27 23 23 21 18 17 19 20 19 18 18 16 12 12 13 12 11 9 9 11 11 13 13 14 17 16 14 11 12 12 12 14 18 17 16 18 21 22 24
27 28 30 30 29 28 26 24 25 22 20 20 20 20 20 19 17 15 14 9 11 9 6 4 5 6 6 6 8 9 9 10 9 10 8 10 13 13 13 15 17 19 21 22
25 26 27 27 28 29 30 28 28 27 25 21 22 22 22 21 18 15 16 12 12 10 8 6 5 5 5 4 4 7 5 3 4 3 5 8 10 11 11 11 14 17 19 21
25 28 27 28 28 27 25 23 22 20 22 26 25 24 25 25 22 19 16 15 13 12 10 9 9 11 8 7 7 6 7 7 6 6 6 6 7 8 9 11 14 17 19 21
22 24 26 27 29 29 28 25 24 23 21 20 22 24 25 26 25 23 19 17 17 16 15 14 12 11 11 9 8 9 7 8 7 6 7 9 8 9 11 13 16 18 20 22
21 22 22 23 24 25 27 28 28 26 21 18 17 19 22 23 25 24 23 21 18 16 15 14 13 12 11 11 10 11 9 8 8 7 8 8 11 12 14 16 19 20 22 24
24 26 25 23 22 21 21 21 24 23 21 19 17 18 20 20 20 22 22 21 19 16 14 13 13 12 10 10 9 10 9 9 8 9 10 11 14 16 16 17 20 22 24 25
21 22 23 25 27 26 23 21 21 22 20 17 16 17 19 19 16 16 16 17 16 16 14 13 12 11 10 11 10 12 11 11 11 12 13 14 13 16 18 19 23 24 25 27
20 20 21 22 22 21 21 25 25 21 18 19 17 16 16 21 16 13 15 13 13 15 12 12 13 11 10 10 13 14 14 14 13 13 13 15 18 20 21 21 23 24 26 27
19 20 19 20 21 20 19 20 21 23 21 17 19 19 16 20 16 13 12 12 11 12 11 11 12 12 12 14 16 16 15 14 15 16 16 18 18 21 22 22 24 24 27 28
19 19 18 18 20 21 20 18 17 20 20 21 19 20 18 20 16 14 13 12 10 11 12 10 11 12 15 17 16 17 17 17 16 17 19 18 20 21 22 23 25 25 27 28
16 17 17 18 19 18 20 20 19 20 19 21 21 20 20 19 16 13 12 11 11 10 12 11 12 14 17 19 19 19 18 18 18 18 20 20 21 22 23 25 25 26 27 27
16 15 15 17 19 19 20 21 20 19 19 22 21 20 19 17 16 15 13 11 12 10 14 11 13 16 20 21 21 21 20 19 20 19 20 21 22 22 23 24 25 26 26 28
16 16 16 15 18 21 21 22 21 21 21 21 22 20 17 17 16 13 13 12 12 13 13 12 14 22 23 23 23 22 22 21 20 21 21 22 23 23 23 24 25 26 26 27
15 15 18 16 17 18 18 19 20 22 22 23 21 17 15 16 16 14 14 13 15 15 15 15 22 27 27 26 23 22 22 22 22 22 22 23 23 24 24 24 25 25 26 27
15 15 15 17 16 18 20 21 23 23 23 22 19 16 15 15 16 16 15 16 16 13 16 22 28 29 28 27 25 24 23 23 23 23 23 23 24 24 25 25 25 25 26 27
17 18 16 17 18 19 21 22 24 25 24 21 19 18 17 16 16 17 15 16 15 19 26 29 29 29 28 28 27 26 25 24 24 24 24 24 24 25 25 26 26 26 27 27
18 18 18 18 20 20 21 22 24 26 24 23 19 19 18 17 17 18 16 17 24 29 29 29 29 29 29 28 27 27 26 25 25 25 25 25 25 25 26 26 27 27 27 28
Wind_Direction
308 308 307 307 308 307 303 300 297 298 294 290 288 284 284 288 283 280 280 279 276 277 278 276 274 272 268 273 265 267 268 272 273 272 276 272 270 268 260 260 266 262 267 267
310 310 310 309 308 307 303 297 296 295 291 289 286 287 284 284 281 279 279 271 276 277 275 276 269 273 275 263 261 267 267 267 275 281 279 274 269 270 269 269 267 263 269 265
311 311 311 310 309 306 301 298 297 297 292 289 290 287 283 283 280 276 274 276 271 276 274 268 271 272 273 265 260 259 259 261 259 265 270 269 270 280 276 269 267 271 271 264
314 313 312 310 308 306 301 297 295 296 295 293 287 286 286 285 281 278 276 272 267 272 270 270 266 264 265 267 274 262 261 260 268 280 269 269 268 282 289 271 273 271 267 268
317 315 314 312 310 307 300 299 298 296 295 296 297 297 293 294 291 289 286 288 295 289 269 280 281 272 272 271 276 270 271 269 265 269 262 261 279 281 280 282 280 275 271 273
320 319 317 317 316 314 308 306 303 301 305 300 296 294 291 292 295 281 291 293 283 294 280 278 267 260 272 281 274 275 272 272 267 263 247 260 271 285 284 279 285 274 274 273
326 325 326 326 327 326 322 321 317 314 313 313 307 304 298 295 288 283 284 290 284 281 268 272 274 282 293 297 291 285 273 271 268 263 260 259 262 277 278 277 283 284 279 279
335 336 338 338 339 341 340 338 334 332 333 331 327 323 315 308 301 292 283 286 282 276 266 272 274 279 280 293 296 310 295 270 271 264 271 263 269 277 278 280 277 281 281 281
348 351 351 353 354 352 354 356 354 353 353 351 344 346 345 339 329 316 304 299 293 282 267 273 276 276 278 283 288 295 309 304 272 271 268 269 273 279 285 275 274 280 285 287
359 4 8 9 10 14 11 8 9 9 13 4 8 5 360 359 358 344 332 331 324 317 289 282 285 279 281 283 287 291 291 290 290 284 270 270 277 286 286 283 280 289 290 290
10 16 20 22 25 25 25 25 28 29 27 20 18 16 14 11 13 13 1 4 3 357 354 323 310 306 303 298 305 301 303 296 293 289 282 281 290 288 289 284 290 294 297 294
19 20 20 21 26 31 33 35 35 37 36 31 29 28 25 24 20 22 24 36 26 27 37 36 37 33 23 10 358 355 349 340 313 308 286 292 300 299 296 299 302 307 307 304
29 28 27 26 23 24 25 25 22 21 30 33 33 29 30 30 30 32 35 33 36 40 49 57 60 60 53 47 37 40 26 30 32 19 354 339 334 332 325 321 318 318 316 313
24 23 26 28 31 32 29 25 25 29 32 30 28 33 33 31 35 39 41 46 49 55 58 60 60 60 51 55 57 51 36 26 19 4 356 349 348 336 333 328 327 325 324 321
20 17 17 17 22 25 27 30 31 31 32 31 29 28 28 31 36 39 42 46 50 50 52 53 52 53 53 46 46 34 30 24 24 2 353 351 337 337 333 330 328 328 328 328
28 27 22 14 10 7 10 12 19 18 21 24 22 23 23 23 28 34 37 40 45 48 46 45 43 43 46 40 32 12 7 2 358 349 344 335 331 332 332 331 330 329 328 328
13 13 14 19 24 25 22 15 7 9 14 17 15 15 17 15 20 24 26 31 35 38 39 38 38 33 35 32 19 358 355 348 344 339 342 337 340 335 333 330 329 329 329 330
3 4 7 6 7 11 13 18 19 16 19 19 17 8 12 11 10 11 14 17 21 24 29 27 25 18 19 11 353 350 348 343 340 337 331 328 332 331 329 331 332 332 331 332
357 357 356 4 7 8 4 5 10 20 22 20 18 13 4 3 8 5 2 10 15 12 16 16 14 13 10 348 344 344 343 342 336 335 332 330 328 328 330 332 333 332 332 333
355 359 1 2 3 2 2 5 7 12 13 17 15 10 5 4 1 2 3 5 5 7 4 357 7 360 354 348 341 338 336 333 335 335 333 334 332 331 331 331 331 331 332 333
352 356 3 1 1 7 11 12 12 6 11 8 6 7 4 7 8 2 8 3 359 4 355 2 353 351 348 345 341 338 333 331 328 325 325 325 325 327 328 329 330 331 333 334
5 5 4 6 9 10 13 9 7 10 6 1 2 1 4 4 8 11 6 8 6 358 352 359 351 345 342 342 338 337 334 331 329 328 326 325 325 325 326 327 329 331 333 335
7 8 9 6 7 15 14 6 5 3 360 360 357 358 3 5 9 8 10 10 358 352 1 351 347 342 338 335 335 334 334 331 328 327 327 327 327 327 327 327 329 330 332 334
12 13 15 18 9 11 11 7 4 1 0 359 359 2 3 3 6 7 9 1 4 4 359 347 341 340 338 336 334 333 332 331 330 328 327 326 326 327 328 328 329 331 331 333
18 17 18 19 16 13 9 7 5 2 0 2 3 4 4 3 6 7 2 3 360 357 348 340 339 337 338 337 335 332 330 329 328 328 328 327 326 326 327 328 329 329 330 331
29 29 28 19 15 9 8 8 6 6 4 4 6 5 5 3 2 2 0 359 352 345 340 337 337 337 337 336 335 333 330 329 328 327 327 328 328 327 327 328 328 328 329 330
29 28 25 23 19 14 9 8 7 6 7 9 9 9 4 356 355 353 351 345 337 334 335 336 336 335 335 336 335 334 332 331 330 329 328 327 327 328 329 327 328 328 328 328